[[{"header":{"parameterUnit":"m.s-1","parameterCategory":1,"la1":30.2991,"la2":30.254,"lo1":-89.0895,"lo2":-89.0444,"dy":0.0017,"dx":0.0017,"nx":28,"ny":28,"refTime":"2025-06-01T21:00:00:Z","depth":0,"parameterNumber":2,"parameterNumberName":"U-component_of_WINDS"},"data":[0,0,0,0,0,0,0,0,0,0,0,0,0,0,0,0,0,0,0,0,0,0,0,0,0,0,0,0,0,0,0,0,0,0,0,0,0,0,0,0,0,0,0,0,0,0,0,0,0,0,0,0,0,0,0,0,0,0,0.4138,0.4139,0,0.4238,0.4239,0.424,0.4287,0.4287,0.4287,0.4287,0.4391,0.4394,0.4397,0,0,0,0,0,0,0,0,0,0,0,0,0,0.399,0.3992,0.4138,0.4139,0.414,0.4237,0.4239,0.424,0.4287,0.4287,0.4287,0.4286,0.439,0.4394,0.4397,0,0,0,0,0,0,0,0,0,0,0,0,0,0.4068,0.3993,0.4138,0.4175,0.4179,0.4237,0.4239,0.4241,0.4287,0.4287,0.4287,0.4286,0.4389,0.4394,0.4398,0.4426,0,0,0.4411,0.4413,0,0,0,0,0,0,0,0,0.4064,0.4074,0.4168,0.4173,0.4178,0.425,0.4225,0.4303,0.4287,0.4246,0.4287,0.4286,0.4344,0.4352,0.4372,0.4431,0.4436,0.4411,0.4414,0.4416,0.4417,0,0,0,0,0,0,0,0.4058,0.407,0.4177,0.417,0.4175,0.4188,0.4199,0.424,0.4295,0.425,0.4253,0.4264,0.4347,0.4367,0.4374,0.4437,0.4411,0.4415,0.4418,0.4419,0.4526,0.4526,0,0,0,0,0,0,0.4046,0.4065,0.4174,0.418,0.4119,0.419,0.4203,0.4227,0.4294,0.4305,0.4264,0.4266,0.436,0.4369,0.4378,0.4416,0.4416,0.442,0.4422,0.4525,0.4526,0.4526,0,0,0,0,0,0,0.4043,0.4056,0.417,0.4124,0.4139,0.4193,0.4219,0.4229,0.4249,0.4305,0.4316,0.4275,0.436,0.4372,0.4414,0.4421,0.4422,0.4425,0.4525,0.4525,0.4526,0.4492,0,0,0,0,0,0,0.4038,0.4054,0.4065,0.4123,0.4141,0.4203,0.422,0.4231,0.4256,0.4259,0.4318,0.4328,0.4361,0.4407,0.4418,0.4426,0.4429,0.4525,0.4525,0.4526,0.4493,0.4492,0.449,0,0,0,0,0,0.4033,0.4052,0.4065,0.4078,0.4156,0.4204,0.4214,0.4251,0.4256,0.4268,0.4304,0.4326,0.4418,0.4411,0.4424,0.4434,0.4525,0.4525,0.4526,0.4494,0.4492,0.449,0,0,0,0,0,0,0.3994,0.4061,0.4076,0.4114,0.4153,0.4211,0.4228,0.4248,0.4287,0.4288,0.4334,0.4347,0.4384,0.4413,0.4404,0.4465,0.4473,0.4476,0.4445,0.4443,0.4442,0.4434,0.4432,0,0,0,0,0,0.399,0.4022,0.4079,0.4107,0.4126,0.4173,0.4195,0.4221,0.4263,0.428,0.4319,0.436,0.4398,0.4422,0.446,0.4497,0.4511,0.451,0.4509,0.4507,0.451,0.4532,0.4532,0.4528,0.4528,0.4528,0,0,0.3982,0.4022,0.404,0.4101,0.4134,0.4167,0.4187,0.4221,0.4246,0.4285,0.4327,0.4357,0.4405,0.4445,0.4464,0.447,0.4514,0.4508,0.4506,0.451,0.4532,0.4532,0.4533,0.4528,0.4528,0.4528,0,0,0.3984,0.4018,0.4045,0.4077,0.4126,0.4158,0.4164,0.422,0.4241,0.4283,0.4313,0.4344,0.4408,0.4442,0.4467,0.4481,0.4503,0.4492,0.4485,0.4506,0.4506,0.4507,0.4512,0.4513,0.4494,0.4494,0.4494,0,0.3968,0.4019,0.4057,0.4089,0.4115,0.4151,0.4179,0.4209,0.4268,0.4286,0.4291,0.4373,0.4408,0.4456,0.4459,0.4478,0.4487,0.4486,0.4503,0.4504,0.4505,0.451,0.4512,0.4493,0.4493,0.4493,0.4493,0,0.3997,0.4032,0.4048,0.4103,0.4131,0.4161,0.4205,0.4228,0.4251,0.4282,0.4324,0.4367,0.4415,0.4428,0.4451,0.4479,0.4481,0.4494,0.4503,0.4503,0.4509,0.4511,0.4491,0.4491,0.4492,0.4492,0,0,0.3979,0.4054,0.4059,0.4085,0.4141,0.4169,0.4201,0.4246,0.4266,0.4306,0.4334,0.4387,0.44,0.4428,0.4455,0.4473,0.4482,0.4484,0.4486,0.4482,0.4516,0.4506,0.4508,0.4496,0.4496,0.4497,0.4512,0,0.3989,0.4047,0.4082,0.4126,0.4159,0.4193,0.4221,0.4259,0.4288,0.4321,0.4354,0.4391,0.4404,0.4421,0.444,0.4476,0.4489,0.4476,0.4523,0.4525,0.4511,0.4511,0.4501,0.4513,0.4514,0.4515,0.4515,0,0.4009,0.4047,0.4094,0.4147,0.4162,0.4186,0.423,0.4261,0.4305,0.4325,0.4356,0.4383,0.4419,0.4424,0.4475,0.4465,0.4486,0.4507,0.4508,0.4515,0.452,0.4518,0.4518,0.4519,0.4519,0.4519,0.4518,0,0.3991,0.4054,0.409,0.4111,0.4173,0.419,0.4216,0.426,0.4285,0.4324,0.4341,0.4383,0.4407,0.444,0.4478,0.4478,0.4524,0.4533,0.4542,0.4541,0.4551,0.455,0.4555,0.4564,0.4564,0.4564,0.4564,0,0.4,0.4027,0.4083,0.4106,0.4138,0.4178,0.4208,0.4238,0.4276,0.4306,0.4338,0.4364,0.4412,0.4445,0.4475,0.4512,0.4523,0.454,0.4548,0.4538,0.4536,0.4553,0.4553,0.4564,0.4564,0.4564,0.4564,0,0.3986,0.4024,0.4066,0.4121,0.4135,0.4156,0.4204,0.4227,0.4258,0.4294,0.4305,0.4354,0.4394,0.4435,0.4489,0.4509,0.4546,0.4556,0.4531,0.4535,0.4542,0.4541,0.4559,0.4564,0.4569,0.4568,0.4568,0,0.3989,0.4011,0.4067,0.4089,0.4115,0.4149,0.4174,0.4214,0.424,0.4291,0.4308,0.435,0.4387,0.445,0.449,0.4532,0.4544,0.4547,0.4551,0.4539,0.4545,0.4543,0.4546,0.4546,0.4546,0.4545,0.4545,0,0.399,0.4008,0.4043,0.4084,0.4113,0.4148,0.4185,0.42,0.4248,0.4275,0.4316,0.4344,0.4399,0.4441,0.4487,0.4516,0.4539,0.4544,0.4548,0.4538,0.4523,0.4532,0.4528,0.4543,0.4544,0.4544,0.4544,0.4544,0.3985,0.4006,0.4049,0.4087,0.4118,0.4151,0.4176,0.4209,0.4244,0.4291,0.4313,0.4354,0.4398,0.4462,0.449,0.4524,0.453,0.4536,0.4538,0.4539,0.4537,0.4517,0.4532,0.4532,0.4532,0.4532,0.4533,0,0.3989,0.4018,0.4052,0.4101,0.4131,0.4149,0.419,0.4214,0.4249,0.4287,0.4322,0.4369,0.441,0.4453,0.4496,0.4515,0.4526,0.4525,0.4524,0.453,0.4529,0.452,0.4515,0.4515,0.4515,0.4515,0.4515,0.4515,0.3994,0.403,0.4053,0.4105,0.4135,0.4175,0.4197,0.4227,0.4258,0.4309,0.4343,0.437,0.441,0.4457,0.4495,0.4507,0.4522,0.4517,0.4532,0.4529,0.4531,0.4532,0.4525,0.452,0.452,0.4531,0.4531,0.4531]},{"header":{"parameterUnit":"m.s-1","parameterCategory":1,"la1":30.2991,"la2":30.254,"lo1":-89.0895,"lo2":-89.0444,"dy":0.0017,"dx":0.0017,"nx":28,"ny":28,"refTime":"2025-06-01T21:00:00:Z","depth":0,"parameterNumber":3,"parameterNumberName":"V-component_of_WINDS"},"data":[0,0,0,0,0,0,0,0,0,0,0,0,0,0,0,0,0,0,0,0,0,0,0,0,0,0,0,0,0,0,0,0,0,0,0,0,0,0,0,0,0,0,0,0,0,0,0,0,0,0,0,0,0,0,0,0,0,0,2.0777,2.0778,0,2.0851,2.0851,2.0852,2.0896,2.0896,2.0896,2.0897,2.097,2.0972,2.0974,0,0,0,0,0,0,0,0,0,0,0,0,0,2.0672,2.0673,2.0777,2.0778,2.0779,2.085,2.0851,2.0852,2.0896,2.0896,2.0896,2.0897,2.097,2.0972,2.0974,0,0,0,0,0,0,0,0,0,0,0,0,0,2.0728,2.0674,2.0777,2.0809,2.0813,2.085,2.0851,2.0853,2.0896,2.0896,2.0897,2.0897,2.0969,2.0972,2.0974,2.0985,0,0,2.0982,2.0984,0,0,0,0,0,0,0,0,2.0725,2.0732,2.0804,2.0807,2.0811,2.0864,2.0841,2.0897,2.0896,2.0864,2.0897,2.0897,2.0935,2.094,2.0953,2.0988,2.0991,2.0983,2.0984,2.0985,2.0986,0,0,0,0,0,0,0,2.0721,2.0729,2.0806,2.0805,2.0809,2.0819,2.0828,2.0852,2.0897,2.0867,2.087,2.0879,2.0937,2.0951,2.0955,2.0992,2.0983,2.0985,2.0987,2.0988,2.1037,2.1037,0,0,0,0,0,0,2.0712,2.0726,2.0804,2.0808,2.0768,2.0821,2.083,2.0847,2.0897,2.0905,2.0878,2.088,2.0946,2.0952,2.0958,2.0972,2.0985,2.0988,2.0989,2.1038,2.1037,2.1037,0,0,0,0,0,0,2.071,2.0719,2.0801,2.0768,2.0779,2.0822,2.0841,2.0848,2.0862,2.0905,2.0913,2.0884,2.0946,2.0954,2.0977,2.0976,2.0989,2.0992,2.1038,2.1037,2.1037,2.1002,0,0,0,0,0,0,2.0707,2.0718,2.0723,2.0768,2.0781,2.082,2.0841,2.085,2.0867,2.087,2.0913,2.092,2.0947,2.0973,2.098,2.098,2.0994,2.1038,2.1038,2.1037,2.1003,2.1,2.0997,0,0,0,0,0,2.0703,2.071,2.0723,2.0732,2.0788,2.0819,2.0827,2.0858,2.0867,2.0871,2.0899,2.0919,2.0975,2.0975,2.0983,2.0984,2.1038,2.1038,2.1037,2.1004,2.1001,2.0997,0,0,0,0,0,0,2.0664,2.0717,2.0732,2.0754,2.0782,2.0827,2.0834,2.0853,2.0879,2.0881,2.0918,2.0928,2.0947,2.0968,2.0967,2.0995,2.1009,2.101,2.0981,2.0978,2.0975,2.0969,2.0996,0,0,0,0,0,2.0658,2.068,2.0724,2.074,2.0753,2.0791,2.0806,2.0827,2.0857,2.0869,2.0899,2.0927,2.095,2.0965,2.099,2.1006,2.1015,2.101,2.1007,2.1005,2.1005,2.1014,2.1011,2.1035,2.1035,2.1035,0,0,2.0646,2.0678,2.0689,2.0733,2.0757,2.0777,2.0801,2.0822,2.0837,2.0873,2.0896,2.0918,2.0952,2.0971,2.0981,2.0989,2.1,2.1004,2.1001,2.1003,2.1013,2.101,2.1008,2.1034,2.1034,2.1035,0,0,2.0635,2.0661,2.0676,2.0699,2.0736,2.0761,2.0764,2.0806,2.0822,2.0846,2.0872,2.089,2.0931,2.0953,2.097,2.0964,2.0983,2.0971,2.0956,2.0964,2.0962,2.0961,2.0958,2.0956,2.0971,2.0971,2.0971,0,2.0615,2.0648,2.0681,2.07,2.0718,2.0751,2.0765,2.0786,2.0828,2.0839,2.0847,2.0898,2.0923,2.0947,2.0945,2.0958,2.0962,2.0967,2.096,2.0959,2.0958,2.0955,2.0954,2.097,2.097,2.097,2.097,0,2.0621,2.0643,2.0651,2.069,2.0709,2.0725,2.076,2.0774,2.0794,2.0817,2.084,2.0871,2.0901,2.0909,2.0928,2.0935,2.0939,2.0953,2.0967,2.0953,2.0951,2.0951,2.0967,2.0968,2.0968,2.0969,0,0,2.0589,2.0645,2.0647,2.0665,2.0706,2.0723,2.074,2.077,2.0781,2.0809,2.0823,2.0856,2.0868,2.0887,2.0909,2.0916,2.0908,2.0929,2.0931,2.0923,2.0916,2.0905,2.0903,2.0921,2.0921,2.0921,2.0913,0,2.0583,2.0616,2.0645,2.0668,2.0687,2.0718,2.0732,2.0759,2.0781,2.08,2.0824,2.0846,2.0862,2.0873,2.0882,2.0907,2.0907,2.0908,2.0934,2.0934,2.0924,2.0902,2.0891,2.0882,2.0912,2.0912,2.0912,0,2.0581,2.0606,2.063,2.0668,2.0677,2.069,2.0718,2.0737,2.0766,2.0782,2.0802,2.0824,2.0843,2.0855,2.088,2.088,2.0892,2.0906,2.0906,2.0909,2.0922,2.0904,2.088,2.0878,2.0912,2.0912,2.0912,0,2.0553,2.0593,2.0613,2.0627,2.0671,2.0679,2.0698,2.0728,2.0744,2.0768,2.0778,2.0805,2.0819,2.0838,2.0867,2.0873,2.0888,2.0903,2.09,2.0899,2.0902,2.0901,2.0879,2.0911,2.0911,2.0911,2.0911,0,2.0543,2.0556,2.0601,2.0612,2.0627,2.066,2.0674,2.0695,2.0721,2.0737,2.0765,2.0778,2.0816,2.0833,2.0856,2.0872,2.0879,2.0891,2.0896,2.0888,2.0886,2.0896,2.0897,2.091,2.091,2.0911,2.0911,0,2.0515,2.0546,2.0568,2.0608,2.0618,2.0627,2.0661,2.0673,2.0696,2.0715,2.0721,2.0757,2.0779,2.0809,2.0841,2.0856,2.0869,2.0879,2.0859,2.0862,2.0857,2.0857,2.084,2.0839,2.0872,2.0871,2.0871,0,2.0507,2.0518,2.0558,2.057,2.0588,2.0608,2.0623,2.0655,2.067,2.0703,2.0711,2.0735,2.0756,2.079,2.0818,2.0842,2.0852,2.0844,2.0856,2.0846,2.0851,2.0849,2.085,2.0841,2.0841,2.084,2.084,0,2.0488,2.0502,2.0524,2.055,2.0567,2.0589,2.0612,2.0621,2.0657,2.0672,2.0695,2.0711,2.0743,2.0766,2.0793,2.0812,2.0831,2.0836,2.0836,2.0828,2.0815,2.0821,2.085,2.0836,2.0837,2.0837,2.0837,2.0837,2.047,2.048,2.0509,2.0531,2.0552,2.0572,2.0585,2.0609,2.0628,2.0657,2.0674,2.0696,2.0723,2.0762,2.0779,2.0796,2.0804,2.0805,2.0805,2.0804,2.0801,2.0813,2.0801,2.0801,2.0801,2.0801,2.0802,0,2.0451,2.0471,2.0491,2.0523,2.0539,2.0556,2.0582,2.0595,2.0614,2.0638,2.0657,2.0683,2.0705,2.0734,2.0758,2.0766,2.0775,2.0771,2.077,2.0774,2.0793,2.079,2.0762,2.0762,2.0763,2.0763,2.0763,2.0763,2.0444,2.0462,2.0478,2.0506,2.0526,2.0547,2.056,2.0578,2.0598,2.0624,2.0643,2.0662,2.0687,2.0713,2.0733,2.0741,2.0748,2.0741,2.0751,2.0769,2.0773,2.0776,2.0773,2.0743,2.0743,2.0731,2.0731,2.073]}]]